Regional Weather Roundup
Issued by NWS

Home | Current Version | Previous Version | Graphics & Text | Print | Product List | Glossary On
Versions: 1 2 3 4 5 6 7 8 9 10 11 12 13 14 15 16 17 18 19 20 21 22 23 24 25 26 27 28 29 30 31 32 33 34 35 36 37 38 39 40 41 42 43 44 45 46 47 48 49 50
386
ASUS44 KLIX 300210
RWRLA
LOUISIANA WEATHER ROUNDUP
NATIONAL WEATHER SERVICE NEW ORLEANS LA
900 PM CDT WED OCT 29 2014

NOTE: "FAIR" INDICATES FEW OR NO CLOUDS BELOW 12,000 FEET WITH NO
      SIGNIFICANT WEATHER AND/OR OBSTRUCTIONS TO VISIBILITY.
      SKY/WX - SKY CONDITION AND SIGNIFICANT WEATHER.
      TMP - AIR TEMPERATURE.    DP   - DEWPOINT TEMPERATURE.
      RH  - RELATIVE HUMIDITY.  PRES - PRESSURE.
      HX  - HEAT INDEX.         WCI  - WIND CHILL INDEX.

*  THESE STATIONS ARE NOT NWS OR FAA STATIONS AND ARE NOT UNDER
   NWS QUALITY CONTROL.

LAZ040-048-061>063-065-066-069-300300-
SOUTHEAST LOUISIANA

CITY           SKY/WX    TMP DP  RH WIND       PRES   REMARKS
N.O. AUDUBON     N/A     76  69  80 MISG        N/A
N.O. INTL ARPT CLOUDY    73  66  78 N13       30.05R
N.O. LAKEFRONT PTCLDY    74  65  73 N20       30.06R
N.O. DOWNTOWN* CLOUDY    75  64  69 N6        30.06R
SLIDELL        CLEAR     70  64  81 N7        30.06R
BATON ROUGE    CLEAR     66  61  84 NW3       30.09R
BOOTHVILLE     CLOUDY    74  68  81 CALM      30.03S
BELLE CHASSE   CLOUDY    76  67  73 N5        30.04R
BOGALUSA*      FAIR      67  63  87 N7        30.10R
NEW ROADS*     FAIR      63  59  87 N6        30.10R
GONZALES*      FAIR      69  66  92 N3        30.08R
HAMMOND*       NOT AVBL
HOUMA*         CLOUDY    73  67  84 N7        30.05S
PORT FOURCHON* MOCLDY    75  70  83 S5        30.07S

$$

LAZ041-044-053-054-300300-
SOUTHWEST LOUISIANA

CITY           SKY/WX    TMP DP  RH WIND       PRES   REMARKS
LAKE CHARLES   CLEAR     65  61  87 NE5       30.10R
LAFAYETTE      MOCLDY    65  63  93 N6        30.09S
PATTERSON      MOCLDY    70  64  83 N6        30.10S
SALT POINT       N/A     70  66  87 CALM      30.07R
NEW IBERIA     MOCLDY    68  62  81 N9        30.09S
CHENAULT AIRPK CLEAR     64  61  88 N5        30.11R

$$

LAZ027-028-300300-
CENTRAL LOUISIANA

CITY           SKY/WX    TMP DP  RH WIND       PRES   REMARKS
FORT POLK      CLEAR     61  52  72 N5        30.12R
ALEXANDRIA INT CLEAR     58  50  75 N3        30.11R
ALEXANDRIA     CLEAR     54  51  90 CALM      30.13R

$$

LAZ001-002-300300-
NORTHWEST LOUISIANA

CITY           SKY/WX    TMP DP  RH WIND       PRES   REMARKS
SHREVEPORT     CLEAR     57  49  74 CALM      30.14S
BARKSDALE AFB  CLEAR     55  50  83 CALM      30.15S
DTN SHREVEPORT CLEAR     54  48  80 CALM      30.15S

$$

LAZ014-016-300300-
NORTHEAST LOUISIANA

CITY           SKY/WX    TMP DP  RH WIND       PRES   REMARKS
MONROE         CLEAR     56  49  77 N5        30.16R
TALLULAH       CLEAR     52  46  80 N3        30.14R

$$




USA.gov is the U.S. government's official web portal to all federal, state and local government web resources and services.